"datetime","# probes","# resolvers","can_ipv6","can_ipv6_prbs","can_tcp","can_tcp_prbs","can_tcp6","can_tcp6_prbs","does_ecs","does_ecs_prbs","does_flagday","does_flagday_prbs","does_rov4","does_rov4_prbs","does_rov6","does_rov6_prbs","does_qnamemin","doesnt_qnamemin","does_qnamemin_prbs","doesnt_qnamemin_prbs","does_nxdomain","doesnt_nxdomain","does_nxdomain_prbs","doesnt_nxdomain_prbs","has_ta_19036","hasnt_ta_19036","has_ta_19036_prbs","hasnt_ta_19036_prbs","has_ta_20326","hasnt_ta_20326","has_ta_20326_prbs","hasnt_ta_20326_prbs","can_rsamd5","cannot_rsamd5","broken_rsamd5","can_rsamd5_prbs","cannot_rsamd5_prbs","broken_rsamd5_prbs","can_dsa","cannot_dsa","broken_dsa","can_dsa_prbs","cannot_dsa_prbs","broken_dsa_prbs","can_rsasha1","cannot_rsasha1","broken_rsasha1","can_rsasha1_prbs","cannot_rsasha1_prbs","broken_rsasha1_prbs","can_dsansec3","cannot_dsansec3","broken_dsansec3","can_dsansec3_prbs","cannot_dsansec3_prbs","broken_dsansec3_prbs","can_rsansec3","cannot_rsansec3","broken_rsansec3","can_rsansec3_prbs","cannot_rsansec3_prbs","broken_rsansec3_prbs","can_rsasha256","cannot_rsasha256","broken_rsasha256","can_rsasha256_prbs","cannot_rsasha256_prbs","broken_rsasha256_prbs","can_rsasha512","cannot_rsasha512","broken_rsasha512","can_rsasha512_prbs","cannot_rsasha512_prbs","broken_rsasha512_prbs","can_eccgost","cannot_eccgost","broken_eccgost","can_eccgost_prbs","cannot_eccgost_prbs","broken_eccgost_prbs","can_ecdsa256","cannot_ecdsa256","broken_ecdsa256","can_ecdsa256_prbs","cannot_ecdsa256_prbs","broken_ecdsa256_prbs","can_ecdsa384","cannot_ecdsa384","broken_ecdsa384","can_ecdsa384_prbs","cannot_ecdsa384_prbs","broken_ecdsa384_prbs","can_ed25519","cannot_ed25519","broken_ed25519","can_ed25519_prbs","cannot_ed25519_prbs","broken_ed25519_prbs","can_ed448","cannot_ed448","broken_ed448","can_ed448_prbs","cannot_ed448_prbs","broken_ed448_prbs","can_gost","cannot_gost","broken_gost","can_gost_prbs","cannot_gost_prbs","broken_gost_prbs","can_sha384","cannot_sha384","broken_sha384","can_sha384_prbs","cannot_sha384_prbs","broken_sha384_prbs","is_internal","is_forwarding","is_external","is_internal_prbs","is_forwarding_prbs","is_external_prbs"
2017-06-20T23:59:59Z,256,453,443,250,453,256,436,246,5,26,0,0,0,0,0,0,0,452,0,256,0,450,0,253,0,0,0,0,0,0,0,0,373,34,8,204,38,23,389,29,0,215,46,0,394,20,0,223,27,0,386,31,0,213,48,0,395,20,0,223,27,0,394,20,0,222,27,0,395,19,0,223,26,0,15,436,0,15,247,0,396,19,0,224,26,0,394,20,0,222,27,0,0,453,0,0,256,0,0,453,0,0,256,0,15,436,0,27,245,0,396,19,0,224,26,0,411,20,22,230,24,37
2017-06-21T23:59:59Z,258,464,454,252,464,258,447,248,8,29,0,0,0,0,0,0,0,463,0,258,0,461,0,255,0,0,0,0,0,0,0,0,379,36,11,205,40,26,398,31,0,217,49,0,406,20,0,226,27,0,399,31,0,217,49,0,406,21,0,226,28,0,405,21,0,225,28,0,405,21,0,225,28,0,15,447,0,15,249,0,407,20,0,226,27,0,407,20,0,226,27,0,0,464,0,0,258,0,0,464,0,0,258,0,14,448,0,27,247,0,406,21,0,225,28,0,414,24,26,229,26,38
2017-06-22T23:59:59Z,261,465,455,255,465,261,446,251,2,25,0,0,0,0,0,0,1,463,1,260,0,462,0,258,0,0,0,0,0,0,0,0,381,35,11,207,38,27,398,32,0,219,49,0,406,21,0,229,27,0,399,32,0,219,49,0,409,19,0,230,25,0,408,19,0,229,25,0,407,20,0,228,26,0,15,448,0,15,252,0,407,21,0,229,27,0,407,21,0,229,27,0,0,465,0,0,261,0,0,465,0,0,261,0,16,447,0,28,249,0,407,21,0,229,27,0,415,22,28,232,25,38
2017-06-23T23:59:59Z,257,463,453,251,462,257,448,249,3,24,0,0,0,0,0,0,0,462,0,257,0,461,0,255,0,0,0,0,0,0,0,0,381,34,10,205,37,24,399,29,0,217,46,0,404,21,0,224,27,0,400,29,0,217,47,0,405,21,0,224,27,0,405,21,0,224,27,0,403,22,0,223,28,0,15,446,0,15,248,0,407,19,0,226,25,0,405,21,0,225,27,0,0,463,0,0,257,0,0,463,0,0,257,0,15,446,0,27,246,0,404,22,0,224,28,0,413,21,29,230,24,37
2017-06-24T23:59:59Z,260,464,454,254,463,260,446,252,4,27,0,0,0,0,0,0,0,463,0,260,0,461,0,257,0,0,0,0,0,0,0,0,381,36,10,207,39,26,398,32,0,218,50,0,407,21,0,228,27,0,399,31,0,218,49,0,406,22,0,226,28,0,406,22,0,226,28,0,404,23,0,225,29,0,15,447,0,15,251,0,407,21,0,228,27,0,406,22,0,227,28,0,0,464,0,0,260,0,0,464,0,0,260,0,14,448,0,27,249,0,407,21,0,227,27,0,414,22,28,231,26,38
2017-06-25T23:59:59Z,260,465,455,254,465,260,452,251,4,25,0,0,0,0,0,0,2,462,1,259,0,461,0,257,0,0,0,0,0,0,0,0,379,38,11,209,40,27,395,36,0,219,52,1,405,24,0,229,29,1,397,34,0,219,50,1,404,24,0,228,29,1,405,23,0,229,28,1,403,24,0,228,29,1,15,448,0,15,251,1,406,22,0,229,27,1,404,24,0,228,29,1,0,465,0,0,260,1,0,465,0,0,260,1,14,449,0,27,249,1,405,23,0,228,28,1,419,21,25,233,24,38
2017-06-26T23:59:59Z,259,463,453,253,463,259,430,250,3,27,0,0,0,0,0,0,0,462,0,259,0,459,0,255,0,0,0,0,0,0,0,0,381,36,11,208,40,26,397,32,0,219,51,0,407,22,0,228,29,0,398,31,0,219,50,0,406,22,0,227,29,0,405,23,0,228,30,0,405,22,0,227,29,0,15,446,0,15,250,0,408,20,0,229,27,0,409,20,0,229,27,0,0,463,0,0,259,0,0,463,0,0,259,0,14,447,0,27,248,0,406,22,0,228,29,0,415,22,26,232,26,39
2017-06-27T23:59:59Z,260,464,454,254,464,260,438,251,4,28,0,0,0,0,0,0,1,462,1,259,0,460,0,256,0,0,0,0,0,0,0,0,382,37,10,209,41,25,398,32,0,219,51,0,409,22,0,230,29,0,399,31,0,219,50,0,407,22,0,228,29,0,406,23,0,229,30,0,406,22,0,228,29,0,14,448,0,14,252,0,409,20,0,230,27,0,409,21,0,229,28,0,0,464,0,0,260,0,0,464,0,0,260,0,15,447,0,28,248,0,409,20,0,230,27,0,416,22,26,233,26,39
2017-06-28T23:59:59Z,261,464,454,255,464,261,444,253,5,25,0,0,0,0,0,0,1,462,1,260,0,460,0,257,0,0,0,0,0,0,0,0,384,36,9,211,39,24,401,30,0,222,48,1,409,22,0,230,28,1,400,30,0,220,48,0,406,23,0,228,29,1,406,23,0,229,29,1,406,22,0,228,28,1,15,447,0,15,252,1,407,22,0,229,28,1,409,21,0,229,27,1,0,464,0,1,261,0,0,464,0,0,261,1,14,448,0,26,250,1,406,23,0,228,29,1,413,22,29,232,26,38
2017-06-29T23:59:59Z,259,462,452,253,462,259,437,248,5,27,0,0,0,0,0,0,2,459,1,258,0,458,0,255,0,0,0,0,0,0,0,0,382,37,9,209,39,23,401,28,0,222,46,0,408,22,0,229,27,0,399,29,0,219,47,0,405,23,0,227,28,0,406,22,0,228,27,0,404,23,0,227,28,0,14,446,0,14,251,0,405,23,0,227,28,0,406,23,0,227,28,0,0,462,0,0,259,0,0,462,0,0,259,0,14,446,0,26,248,0,405,23,0,226,28,0,412,21,29,231,26,38
2017-06-30T23:59:59Z,261,465,456,255,465,261,446,253,3,24,0,0,0,0,0,0,2,463,1,260,0,461,0,257,0,0,0,0,0,0,0,0,385,35,10,211,38,25,403,29,0,223,48,1,411,21,0,231,27,1,403,28,0,223,47,1,408,22,0,229,28,1,408,22,0,230,28,1,408,22,0,229,28,1,14,449,0,14,253,1,409,21,0,229,27,1,409,22,0,229,28,1,0,465,0,0,261,1,0,465,0,0,261,1,14,449,0,27,250,1,409,21,0,229,27,1,416,19,30,233,23,39
2017-07-01T23:59:59Z,264,469,459,258,469,264,441,256,2,23,0,0,0,0,0,0,0,468,0,264,0,465,0,260,0,0,0,0,0,0,0,0,387,36,9,214,38,23,404,30,0,224,48,0,413,21,0,234,27,0,402,31,0,223,49,0,410,22,0,231,28,0,410,22,0,232,28,0,409,23,0,231,29,0,15,452,0,15,255,0,411,21,0,232,27,0,412,21,0,232,27,0,0,469,0,0,264,0,0,469,0,0,264,0,16,451,0,28,252,0,410,22,0,230,28,0,417,22,30,235,26,39
2017-07-02T23:59:59Z,264,473,463,259,473,264,440,252,6,25,0,0,0,0,0,0,0,472,0,264,0,469,0,260,0,0,0,0,0,0,0,0,390,37,9,214,38,24,408,30,0,224,47,1,416,22,0,234,27,1,405,32,0,222,49,1,413,23,0,231,28,1,413,23,0,232,28,1,413,23,0,232,28,1,14,457,0,14,256,1,413,23,0,231,28,1,414,23,0,231,28,1,0,473,0,0,264,1,0,473,0,0,264,1,14,457,0,26,253,1,413,23,0,230,28,1,419,21,33,234,25,40
2017-07-03T23:59:59Z,262,464,455,256,464,262,434,252,4,25,0,0,0,0,0,0,0,464,0,262,0,460,1,258,0,0,0,0,0,0,0,0,388,34,7,213,38,25,403,26,0,225,47,2,411,20,0,233,28,2,402,26,0,223,47,2,409,20,0,230,28,2,409,20,0,231,28,2,409,20,0,231,28,2,15,447,0,15,253,2,410,19,0,231,27,2,410,20,0,231,28,2,0,464,0,0,262,2,0,464,0,0,262,2,16,446,0,27,250,2,409,20,0,231,28,2,411,21,32,232,26,41
2017-07-04T23:59:59Z,267,473,463,261,473,267,437,257,4,27,0,0,0,0,0,0,1,471,1,266,0,469,1,263,0,0,0,0,0,0,0,0,391,36,9,216,40,27,406,32,0,226,51,2,416,22,0,236,29,2,408,29,0,226,48,2,415,21,0,234,28,2,415,21,0,235,28,2,415,21,0,235,28,2,15,456,0,15,258,2,415,22,0,234,29,2,416,21,0,234,28,2,0,473,0,0,267,2,0,473,0,0,267,2,15,456,0,28,256,2,414,22,0,234,29,2,420,22,31,237,27,42
2017-07-05T23:59:59Z,266,475,465,260,475,266,444,255,4,25,0,0,0,0,0,0,2,472,1,265,0,471,1,262,0,0,0,0,0,0,0,0,393,37,8,215,39,26,411,29,0,227,47,2,417,23,0,235,28,2,408,32,0,226,50,2,416,22,0,233,27,2,416,22,0,234,27,2,415,23,0,234,28,2,15,458,0,15,257,2,415,24,0,231,29,2,414,25,0,231,30,2,0,475,0,0,266,2,0,475,0,0,266,2,15,458,0,28,255,2,414,24,0,232,29,2,422,21,32,236,25,41
2017-07-06T23:59:59Z,264,474,465,258,474,264,412,245,6,27,0,0,0,0,0,0,3,471,2,262,0,470,1,260,0,0,0,0,0,0,0,0,396,36,8,215,39,25,411,31,0,225,50,1,420,22,0,235,28,1,411,31,0,225,50,1,417,23,0,232,29,1,417,23,0,233,29,1,418,22,0,233,28,1,13,459,0,13,257,1,417,24,0,231,30,1,418,23,0,231,29,1,0,474,0,0,264,1,0,474,0,0,264,1,16,456,0,28,252,1,418,22,0,232,28,1,422,20,32,235,24,40
2017-07-07T23:59:59Z,261,472,462,255,472,261,459,252,4,26,0,0,0,0,0,0,3,468,2,259,0,468,1,257,0,0,0,0,0,0,0,0,393,36,10,212,38,26,413,29,0,225,47,1,419,22,0,232,27,1,412,29,0,224,46,2,415,24,0,229,29,1,416,23,0,230,28,2,416,23,0,231,28,1,13,457,0,13,254,1,416,24,0,229,29,1,417,23,0,229,28,1,0,472,0,0,261,1,0,472,0,0,261,1,14,456,0,27,251,1,416,23,0,229,28,1,423,20,29,234,25,40
2017-07-08T23:59:59Z,263,476,466,257,476,263,462,254,4,25,0,0,0,0,0,0,2,473,1,262,0,471,1,258,0,0,0,0,0,0,0,0,395,37,10,214,39,26,415,30,0,227,48,1,422,22,0,234,27,1,415,29,0,226,47,1,419,23,0,231,28,1,418,24,0,232,29,1,418,24,0,232,29,1,14,460,0,14,255,1,419,24,0,231,29,1,419,24,0,231,29,1,0,476,0,0,263,1,0,476,0,0,263,1,13,461,0,26,253,1,420,22,0,232,27,1,426,21,29,235,25,39
2017-07-09T23:59:59Z,268,482,472,262,482,268,468,259,2,26,0,0,0,0,0,0,2,479,1,267,0,478,1,264,0,0,0,0,0,0,0,0,397,39,11,215,41,28,417,34,0,227,52,1,425,24,0,237,29,1,417,33,0,227,50,1,421,26,0,234,31,1,421,26,0,235,31,1,422,25,0,235,30,1,14,466,0,14,260,1,423,25,0,234,30,1,423,25,0,234,30,1,0,482,0,0,268,1,0,482,0,0,268,1,13,467,0,27,258,1,422,25,0,234,30,1,432,21,29,240,26,41
2017-07-10T23:59:59Z,266,481,472,260,481,266,469,259,3,27,0,0,0,0,0,0,3,478,2,264,0,476,1,261,0,0,0,0,0,0,0,0,403,35,9,218,39,27,423,27,0,230,49,1,430,19,0,239,26,1,423,26,0,230,48,1,427,21,0,237,28,1,427,21,0,238,28,1,428,20,0,238,27,1,14,465,0,14,258,1,428,20,0,237,27,1,429,19,0,237,26,1,0,481,0,0,266,1,0,481,0,0,266,1,16,463,0,30,254,1,427,20,0,237,27,1,433,20,28,238,27,40
2017-07-11T23:59:59Z,266,479,469,260,479,266,466,258,4,28,0,0,0,0,0,0,2,476,1,265,0,475,1,262,0,0,0,0,0,0,0,0,400,38,8,217,40,27,419,30,0,229,48,1,425,22,2,239,27,2,416,31,1,228,49,2,424,23,0,239,28,1,424,22,0,239,27,1,423,23,0,239,28,1,16,461,0,16,257,1,422,24,0,236,29,1,422,24,0,236,29,1,0,479,0,0,266,1,0,479,0,0,266,1,16,461,0,30,254,1,421,24,0,235,29,1,431,19,29,239,24,42
2017-07-12T23:59:59Z,265,476,467,259,476,265,464,257,4,26,0,0,0,0,0,0,2,474,1,264,0,472,1,261,0,0,0,0,0,0,0,0,399,35,9,217,38,27,418,27,0,229,47,1,424,22,0,239,28,1,414,29,0,228,49,1,422,21,0,237,27,1,421,21,0,237,27,1,421,21,0,237,27,1,15,459,0,15,256,1,422,21,0,236,27,1,421,22,0,235,28,1,0,476,0,0,265,1,0,476,0,0,265,1,14,458,2,29,253,2,421,22,0,236,28,1,426,20,30,237,24,42
2017-07-13T23:59:59Z,265,475,464,258,475,265,461,256,4,25,0,0,0,0,0,0,3,472,2,263,0,470,1,261,0,0,0,0,0,0,0,0,395,35,10,216,38,26,416,28,0,230,47,1,422,21,0,238,27,1,414,28,0,230,47,1,421,20,0,237,26,1,418,22,0,236,28,1,420,20,0,237,26,1,15,458,0,15,256,1,420,20,0,236,26,1,419,21,0,235,27,1,0,475,0,0,265,1,0,475,0,0,265,1,15,458,0,28,253,1,419,21,0,234,27,1,424,20,31,237,24,41
2017-07-14T23:59:59Z,268,478,467,261,478,268,463,258,7,29,0,0,0,0,0,0,2,476,1,267,0,472,1,262,0,0,0,0,0,0,0,0,396,37,11,216,40,27,416,32,0,229,51,1,424,23,0,238,29,1,417,29,0,231,48,1,422,23,0,238,29,1,422,22,0,238,28,1,421,23,0,238,29,1,14,462,0,14,260,1,419,25,0,234,31,1,420,24,0,234,30,1,0,478,0,0,268,1,0,478,0,0,268,1,15,461,0,28,256,1,420,24,0,234,30,1,427,21,30,239,26,42
2017-07-15T23:59:59Z,262,472,461,256,472,262,457,253,3,26,0,0,0,0,0,0,0,472,0,262,0,468,0,258,0,0,0,0,0,0,0,0,392,35,11,215,37,25,412,30,0,226,48,0,419,22,0,234,27,0,410,30,0,225,48,0,418,21,0,233,26,0,417,21,0,233,26,0,416,22,0,233,27,0,15,455,0,16,253,0,416,22,0,231,27,0,416,22,0,231,27,0,0,472,0,0,262,0,0,472,0,0,262,0,17,453,0,29,249,0,416,22,0,230,27,0,422,20,30,234,25,42
2017-07-16T23:59:59Z,264,472,460,256,472,264,457,254,9,30,0,0,0,0,0,0,1,471,1,263,0,467,0,259,0,0,0,0,0,0,0,0,389,37,12,214,39,27,413,29,0,228,48,0,421,20,0,237,26,0,411,29,0,229,48,0,419,20,0,235,26,0,418,20,0,235,26,0,417,21,0,235,27,0,15,455,0,15,255,0,419,19,0,234,25,0,419,19,0,234,25,0,0,472,0,0,264,0,0,472,0,0,264,0,16,454,0,30,252,0,418,20,0,234,26,0,420,21,31,235,25,42
2017-07-17T23:59:59Z,264,470,458,256,470,264,455,254,6,29,0,0,0,0,0,0,0,470,0,264,0,466,0,260,0,0,0,0,0,0,0,0,386,38,12,212,39,28,410,30,0,227,49,0,419,20,0,238,26,0,407,31,0,227,50,0,417,20,0,237,26,0,416,20,0,237,26,0,417,19,0,238,25,0,14,454,0,14,256,0,415,21,0,233,27,0,415,21,0,233,27,0,0,470,0,0,264,0,0,470,0,0,264,0,18,450,0,31,251,0,414,22,0,233,28,0,419,21,30,235,26,43
2017-07-18T23:59:59Z,263,469,457,255,469,263,454,254,4,27,0,0,0,0,0,0,1,468,1,262,0,465,0,259,0,0,0,0,0,0,0,0,387,39,9,212,40,26,411,28,0,228,46,0,417,21,0,236,26,0,408,29,0,227,47,0,415,21,0,234,26,0,413,22,0,234,27,0,414,21,0,234,26,0,15,452,0,15,254,0,415,20,0,233,25,0,414,21,0,232,26,0,0,469,0,0,263,0,0,469,0,0,263,0,16,451,0,30,251,0,414,21,0,232,26,0,416,22,31,233,26,42
2017-07-19T23:59:59Z,263,470,458,255,470,263,455,254,5,27,0,0,0,0,0,0,3,467,2,261,0,465,0,258,0,0,0,0,0,0,0,0,386,40,10,213,42,25,409,31,0,227,50,0,417,22,0,235,27,0,408,30,0,228,49,0,415,22,0,235,27,0,414,22,0,234,27,0,415,21,0,235,26,0,14,454,0,14,255,0,413,23,0,232,28,0,413,23,0,231,28,1,0,470,0,0,263,0,0,470,0,0,263,0,17,451,0,31,250,0,414,22,0,232,27,0,418,21,31,234,25,42
2017-07-20T23:59:59Z,264,469,457,256,469,264,454,255,7,30,0,0,0,0,0,0,2,467,1,263,0,463,0,258,0,0,0,0,0,0,0,0,389,37,11,215,40,26,412,29,0,228,49,0,419,21,0,237,27,0,408,31,0,227,51,0,416,22,0,235,28,0,415,22,0,235,28,0,414,23,0,235,29,0,15,452,0,15,255,0,414,23,0,233,29,0,414,23,0,233,29,0,0,469,0,0,264,0,0,469,0,0,264,0,15,452,0,29,253,0,414,23,0,232,29,0,418,21,30,235,25,42
2017-07-21T23:59:59Z,264,469,457,256,469,264,454,254,7,29,0,0,0,0,0,0,0,469,0,264,0,464,0,259,0,0,0,0,0,0,0,0,388,36,13,214,41,28,412,29,0,229,51,0,419,20,0,238,28,0,410,28,0,229,50,0,418,19,0,237,27,0,416,19,0,236,27,0,417,19,0,238,27,0,14,453,0,14,256,0,416,20,0,234,28,0,414,21,0,233,29,0,0,469,0,0,264,0,0,469,0,0,264,0,15,452,0,29,252,0,415,20,0,233,28,0,417,21,31,235,25,43
2017-07-22T23:59:59Z,262,467,455,254,467,262,451,252,2,26,0,0,0,0,0,0,1,466,1,261,0,462,0,257,0,0,0,0,0,0,0,0,387,36,12,213,40,27,413,26,0,228,47,0,419,18,0,237,25,0,409,27,0,227,48,0,415,20,0,235,27,0,414,19,0,234,26,0,415,19,0,235,26,0,15,450,0,15,253,0,414,20,0,233,27,0,414,19,0,232,26,0,0,467,0,0,262,0,0,467,0,0,262,0,14,451,0,28,251,0,413,20,0,232,27,0,416,20,31,234,24,42
2017-07-23T23:59:59Z,262,467,455,254,467,262,452,252,6,27,0,0,0,0,0,0,0,467,0,262,0,463,0,258,0,0,0,0,0,0,0,0,390,34,11,214,38,27,411,28,0,227,49,0,418,19,0,237,26,0,407,29,0,226,50,0,415,20,0,235,27,0,414,19,0,234,26,0,415,19,0,236,26,0,15,450,0,15,253,0,415,20,0,233,27,0,413,20,0,232,27,0,0,467,0,0,262,0,0,467,0,0,262,0,16,449,0,30,249,0,415,19,0,234,26,0,416,20,31,234,24,42
2017-07-24T23:59:59Z,264,469,458,257,469,264,454,254,5,28,0,0,0,0,0,0,0,469,0,264,0,464,0,259,0,0,0,0,0,0,0,0,392,35,12,217,39,27,416,26,0,231,48,0,420,20,0,238,27,0,413,26,0,231,48,0,418,20,0,238,27,0,417,19,0,237,26,0,417,20,0,237,27,0,15,453,0,15,256,0,420,19,0,236,26,0,418,19,0,235,26,0,0,469,0,0,264,0,0,469,0,0,264,0,17,451,0,30,252,0,417,20,0,234,27,0,417,21,31,235,26,42
2017-07-25T23:59:59Z,263,468,457,256,468,263,454,255,4,29,0,0,0,0,0,0,1,467,1,262,0,464,0,259,0,0,0,0,0,0,0,0,389,37,12,214,42,27,414,27,0,229,50,0,420,19,0,237,27,0,410,28,0,228,51,0,419,18,0,238,26,0,416,19,0,236,27,0,418,18,0,238,26,0,15,452,0,15,255,0,420,18,0,236,26,0,417,19,0,235,27,0,0,468,0,0,263,0,0,468,0,0,263,0,17,450,0,31,250,0,417,19,0,235,27,0,417,20,31,235,25,43
2017-07-26T23:59:59Z,262,467,456,255,467,262,453,254,1,25,0,0,0,0,0,0,1,466,1,261,0,463,0,258,0,0,0,0,0,0,0,0,388,36,12,214,41,27,413,27,0,229,49,0,417,20,0,236,28,0,410,27,0,230,49,0,418,18,0,237,26,0,416,18,0,236,26,0,417,18,0,237,26,0,16,450,0,16,253,0,417,19,0,235,27,0,416,18,0,234,26,0,0,467,0,0,262,0,0,467,0,0,262,0,18,448,0,32,248,0,416,18,0,234,26,0,416,20,31,234,24,43
2017-07-27T23:59:59Z,262,462,451,255,462,262,449,254,6,27,0,0,0,0,0,0,0,462,0,262,0,457,1,257,0,0,0,0,0,0,0,0,386,36,9,215,40,27,406,29,0,228,50,1,412,20,0,237,27,0,405,27,0,228,48,1,411,20,0,237,27,0,408,21,0,235,28,0,410,20,0,236,27,0,15,446,0,15,254,1,410,21,0,234,28,0,409,20,0,233,27,0,0,462,0,0,262,0,0,462,0,0,262,0,17,444,0,33,250,0,408,21,0,233,28,1,411,21,30,233,25,43
2017-07-28T23:59:59Z,263,467,456,256,467,263,453,254,5,28,0,0,0,0,0,0,2,465,1,262,0,463,0,259,0,0,0,0,0,0,0,0,384,39,13,212,41,29,408,32,0,226,51,0,414,23,0,235,28,0,407,30,0,227,50,0,414,22,0,235,27,0,412,23,0,234,28,0,414,21,0,236,26,0,15,451,0,15,255,0,412,24,0,232,29,0,410,24,0,231,29,0,0,467,0,0,263,0,0,467,0,0,263,0,17,449,0,32,251,0,412,22,0,232,27,0,417,20,30,235,24,43
2017-07-29T23:59:59Z,260,461,450,253,461,260,448,252,4,25,0,0,0,0,0,0,3,458,2,258,0,457,0,256,0,0,0,0,0,0,0,0,382,39,11,212,41,25,408,26,0,227,45,0,411,22,0,234,27,0,405,26,0,227,45,0,410,21,0,234,26,1,410,20,0,233,25,0,409,21,0,233,26,0,16,444,0,16,251,0,410,22,0,232,27,0,409,21,0,231,26,0,0,461,0,0,260,0,0,461,0,0,260,0,15,445,0,28,249,1,408,22,0,230,27,0,411,20,30,232,24,41
2017-07-30T23:59:59Z,261,464,453,255,464,261,450,253,5,27,0,0,0,0,0,0,3,461,2,259,0,460,0,257,0,0,0,0,0,0,0,0,381,39,13,212,41,27,406,31,0,226,49,0,411,23,0,234,28,0,402,32,0,226,50,0,410,23,0,233,28,0,409,23,0,232,28,0,408,24,0,233,29,0,16,447,0,16,252,0,410,23,0,232,28,0,409,22,0,231,27,0,0,464,0,0,261,0,0,464,0,0,261,0,16,447,0,29,249,0,408,23,0,230,28,0,412,21,31,232,25,42
2017-07-31T23:59:59Z,259,460,449,252,459,258,446,250,5,27,0,0,0,0,0,0,2,458,1,258,0,455,0,254,0,0,0,0,0,0,0,0,381,39,11,211,41,26,404,29,0,226,48,0,408,23,0,232,28,0,403,27,0,226,46,0,407,23,0,232,28,0,407,22,0,231,27,0,407,22,0,232,27,0,15,444,0,15,251,0,409,21,0,231,26,0,406,22,0,230,27,0,0,460,0,0,259,0,0,460,0,0,259,0,15,444,0,28,248,0,406,21,1,230,26,1,408,21,31,231,25,41
2017-08-01T23:59:59Z,260,462,451,253,462,260,447,250,8,28,0,0,0,0,0,0,0,462,0,260,0,458,0,256,0,0,0,0,0,0,0,0,384,39,9,212,41,25,403,32,0,225,50,0,410,23,0,233,28,0,400,31,0,226,49,0,408,22,0,234,27,0,409,20,0,234,25,0,408,21,0,234,26,0,15,446,0,15,252,0,409,22,0,232,27,0,406,23,0,231,28,1,0,462,0,0,260,0,0,462,0,0,260,1,16,445,0,29,248,0,408,21,0,231,26,0,409,23,30,230,26,40
2017-08-02T23:59:59Z,258,455,444,251,455,258,443,251,3,25,0,0,0,0,0,0,0,455,0,258,0,451,0,254,0,0,0,0,0,0,0,0,383,34,10,212,37,26,404,25,0,228,45,0,409,19,0,234,25,0,399,26,0,226,46,0,405,19,0,233,25,0,404,19,0,232,25,0,404,19,0,233,25,0,16,438,0,16,249,0,406,20,0,232,26,0,404,20,0,231,26,0,0,455,0,0,258,0,0,455,0,0,258,0,15,439,0,28,247,0,405,19,0,231,25,0,404,21,30,230,25,40
2017-08-03T23:59:59Z,260,461,450,253,461,260,448,252,3,24,0,0,0,0,0,0,1,460,1,259,0,457,0,256,0,0,0,0,0,0,0,0,386,37,9,213,40,24,407,28,0,227,47,0,412,21,0,234,27,0,404,27,0,228,46,0,409,21,0,234,27,0,408,21,0,232,27,0,407,22,0,233,28,0,15,445,0,15,252,0,409,22,0,232,28,0,408,21,0,231,27,0,0,461,0,0,260,0,0,461,0,0,260,0,16,444,0,29,249,0,408,21,0,231,27,0,408,23,30,230,26,40
2017-08-04T23:59:59Z,262,464,453,256,464,262,450,255,4,25,0,0,0,0,0,0,0,464,0,262,0,460,0,258,0,0,0,0,0,0,0,0,386,38,11,215,39,26,405,33,0,227,50,0,412,24,0,236,28,0,404,30,0,228,47,0,410,23,0,236,27,0,410,22,0,235,26,0,409,23,0,235,27,0,15,448,0,15,254,0,410,24,0,234,28,0,410,22,0,234,26,0,0,464,0,0,262,0,0,464,0,0,262,0,15,448,0,28,251,0,409,23,0,233,27,0,412,22,30,233,25,40
2017-08-05T23:59:59Z,260,460,450,253,460,260,448,252,2,25,0,0,0,0,0,0,0,460,0,260,0,456,0,256,0,0,0,0,0,0,0,0,386,36,9,215,38,26,406,28,0,229,47,0,411,21,0,236,26,0,403,27,0,229,46,0,409,20,0,235,25,0,408,20,0,235,25,0,407,21,0,235,26,0,16,443,0,16,252,0,409,21,0,234,26,0,407,21,0,233,26,0,0,460,0,0,260,0,0,460,0,0,260,0,18,441,0,31,246,0,408,20,0,233,25,1,409,21,30,232,24,41
2017-08-06T23:59:59Z,261,459,449,254,459,261,447,253,6,28,0,0,0,0,0,0,2,457,1,260,0,455,0,257,0,0,0,0,0,0,0,0,384,36,10,216,39,25,405,28,0,230,47,0,410,21,0,236,27,0,402,27,0,229,46,0,409,19,0,236,25,0,407,20,0,235,26,0,407,20,0,236,26,0,15,443,0,15,253,0,406,23,0,232,29,0,406,21,0,232,27,0,0,459,0,0,261,0,0,459,0,0,261,0,17,441,0,29,249,0,407,20,0,233,26,0,408,22,29,232,25,39
2017-08-07T23:59:59Z,259,457,447,253,457,259,443,251,2,24,0,0,0,0,0,0,2,455,1,258,0,453,0,255,0,0,0,0,0,0,0,0,380,39,9,213,41,24,401,30,0,226,48,0,406,23,0,232,28,0,399,28,0,227,46,0,405,21,0,233,26,0,403,22,0,232,27,0,402,23,0,232,28,0,14,442,0,14,252,0,403,24,0,230,29,0,400,25,0,228,30,0,0,457,0,0,259,0,0,457,0,0,259,0,15,441,0,28,249,0,403,22,0,229,27,0,407,22,28,229,26,39
2017-08-08T23:59:59Z,260,458,448,253,458,260,446,252,3,27,0,0,0,0,0,0,0,458,0,260,0,454,0,256,0,0,0,0,0,0,0,0,385,34,10,215,39,25,406,26,0,229,47,0,410,20,0,235,28,0,402,26,0,228,47,0,409,18,0,235,26,0,408,18,0,234,26,0,407,19,0,235,27,0,14,443,0,14,253,0,407,20,1,231,28,1,405,21,0,231,29,0,0,458,0,0,260,0,0,458,0,0,260,0,14,443,0,27,250,0,407,19,0,231,27,0,406,21,31,230,26,40
2017-08-09T23:59:59Z,260,457,447,253,457,260,445,253,4,27,0,0,0,0,0,0,1,456,1,259,0,452,0,255,0,0,0,0,0,0,0,0,386,34,8,217,40,24,404,27,0,229,49,0,411,18,0,236,27,0,403,25,0,230,47,0,409,17,0,236,26,0,407,18,0,235,27,0,409,17,0,236,26,0,15,441,0,15,252,0,407,20,0,233,29,0,406,19,0,232,28,0,0,457,0,0,260,0,1,456,0,1,259,0,15,441,0,28,249,0,405,19,1,230,28,1,406,20,31,231,26,42
2017-08-10T23:59:59Z,256,451,441,249,451,256,439,248,7,27,0,0,0,0,0,0,0,451,0,256,0,447,0,252,0,0,0,0,0,0,0,0,377,34,11,212,38,25,399,25,1,226,45,1,404,19,0,231,26,0,399,23,0,227,43,0,403,17,0,232,24,0,402,17,0,232,24,0,403,17,0,233,24,0,14,436,0,14,249,0,402,19,0,229,26,0,398,21,0,227,28,0,0,451,0,0,256,0,0,451,0,0,256,0,16,434,0,28,245,0,401,18,0,228,25,0,399,20,32,227,23,41
2017-08-11T23:59:59Z,259,454,444,252,453,258,442,251,5,26,0,0,0,0,0,0,1,453,1,258,0,450,0,255,0,0,0,0,0,0,0,0,379,35,11,215,39,23,401,27,0,227,46,0,406,20,0,234,27,0,397,28,0,225,47,0,404,19,0,233,26,0,402,20,0,232,27,0,404,19,0,233,26,0,14,439,0,14,252,0,403,21,0,230,28,0,400,21,1,228,28,1,0,454,0,0,259,0,0,454,0,0,259,0,15,438,0,27,249,0,402,20,0,229,27,0,402,21,31,229,24,41
2017-08-12T23:59:59Z,257,452,442,250,452,257,440,249,2,24,0,0,0,0,0,0,0,452,0,257,0,448,0,253,0,0,0,0,0,0,0,0,379,34,9,213,39,24,398,27,0,226,47,1,404,19,0,233,27,1,398,24,0,228,44,1,403,17,0,234,25,1,401,18,0,232,26,1,402,18,0,233,26,1,15,436,0,15,249,1,403,18,0,231,26,1,400,19,0,230,27,1,0,452,0,0,257,1,0,452,0,0,257,1,16,435,0,28,246,1,401,18,0,230,26,0,401,20,31,228,24,42
2017-08-13T23:59:59Z,261,463,452,255,463,261,448,252,7,28,0,0,0,0,0,0,0,462,0,261,0,459,0,257,0,0,0,0,0,0,0,0,383,38,12,214,40,26,403,33,0,226,51,0,412,22,0,236,28,0,403,30,0,227,48,0,410,21,0,236,27,0,409,21,0,235,27,0,412,19,0,237,25,0,13,449,0,13,254,0,409,23,0,233,29,0,408,22,0,232,28,0,0,463,0,0,261,0,0,463,0,0,261,0,16,445,1,29,248,1,409,21,0,233,27,0,410,21,32,231,25,42
2017-08-14T23:59:59Z,262,462,451,255,462,262,450,255,4,26,0,0,0,0,0,0,0,461,0,262,0,458,0,258,0,0,0,0,0,0,0,0,388,33,11,217,37,25,410,25,0,230,45,0,414,19,0,238,26,0,409,23,0,231,43,0,413,17,0,238,24,0,412,17,0,237,24,0,413,17,0,238,24,0,15,446,0,15,253,0,412,19,0,235,26,0,409,20,0,234,27,0,0,462,0,0,262,0,0,462,0,0,262,0,14,447,0,27,251,0,411,18,0,234,25,0,409,21,32,233,25,41
2017-08-15T23:59:59Z,265,473,462,258,473,265,461,258,6,28,0,0,0,0,0,0,0,472,0,265,0,469,0,261,0,0,0,0,0,0,0,0,395,36,12,218,38,26,417,29,0,232,46,0,423,21,0,240,26,0,415,28,0,232,45,0,420,21,0,239,26,0,419,21,0,238,26,0,420,21,0,239,26,0,15,457,0,15,256,0,420,22,0,237,27,0,417,23,0,235,28,0,0,473,0,0,265,0,0,473,0,0,265,0,15,457,0,28,253,0,420,20,0,236,25,0,418,22,33,234,26,41